TimeMDT,TemperatureF,Dew PointF,Humidity,Sea Level PressureIn,VisibilityMPH,Wind Direction,Wind SpeedMPH,Gust SpeedMPH,PrecipitationIn,Events,Conditions,WindDirDegrees,DateUTC
12:53 AM,27.0,23.0,85,30.22,10.0,East,6.9,-,N/A,,Clear,100,2013-03-13 06:53:00
1:53 AM,24.1,21.0,88,30.21,10.0,East,6.9,-,N/A,,Clear,80,2013-03-13 07:53:00
2:53 AM,26.1,21.0,81,30.19,10.0,Calm,Calm,-,N/A,,Clear,0,2013-03-13 08:53:00
3:53 AM,24.1,21.0,88,30.19,10.0,NNE,3.5,-,N/A,,Clear,30,2013-03-13 09:53:00
4:53 AM,25.0,21.0,85,30.19,10.0,Calm,Calm,-,N/A,,Clear,0,2013-03-13 10:53:00
5:53 AM,21.9,19.0,89,30.22,9.0,NW,4.6,-,N/A,,Clear,320,2013-03-13 11:53:00
6:53 AM,21.0,18.0,88,30.25,8.0,West,5.8,-,N/A,,Clear,280,2013-03-13 12:53:00
7:53 AM,21.9,19.0,89,30.27,7.0,Calm,Calm,-,N/A,,Clear,0,2013-03-13 13:53:00
8:53 AM,28.9,23.0,78,30.27,8.0,Calm,Calm,-,N/A,,Clear,0,2013-03-13 14:53:00
9:53 AM,39.0,27.0,62,30.24,10.0,WNW,4.6,-,N/A,,Clear,300,2013-03-13 15:53:00
10:53 AM,55.0,30.0,38,30.19,10.0,West,6.9,-,N/A,,Clear,280,2013-03-13 16:53:00
11:53 AM,60.1,26.1,27,30.18,10.0,West,13.8,-,N/A,,Clear,280,2013-03-13 17:53:00
1:53 PM,64.0,25.0,23,30.13,10.0,WNW,8.1,18.4,N/A,,Clear,300,2013-03-13 19:53:00
2:53 PM,64.0,23.0,21,30.11,10.0,WNW,13.8,-,N/A,,Clear,300,2013-03-13 20:53:00
3:53 PM,64.9,24.1,21,30.09,10.0,Variable,4.6,-,N/A,,Clear,0,2013-03-13 21:53:00
4:53 PM,64.9,24.1,21,30.08,10.0,NNW,12.7,18.4,N/A,,Clear,330,2013-03-13 22:53:00
5:53 PM,64.9,24.1,21,30.09,10.0,NNW,11.5,-,N/A,,Clear,330,2013-03-13 23:53:00
6:53 PM,60.1,26.1,27,30.11,10.0,West,10.4,-,N/A,,Clear,280,2013-03-14 00:53:00
7:53 PM,55.0,26.1,33,30.14,10.0,West,6.9,-,N/A,,Clear,280,2013-03-14 01:53:00
8:53 PM,50.0,26.1,39,30.14,10.0,West,10.4,-,N/A,,Clear,280,2013-03-14 02:53:00
9:53 PM,46.9,26.1,44,30.14,10.0,West,4.6,-,N/A,,Clear,280,2013-03-14 03:53:00
10:53 PM,46.0,26.1,46,30.11,10.0,West,6.9,-,N/A,,Clear,280,2013-03-14 04:53:00
11:53 PM,42.1,26.1,53,30.11,10.0,NNE,6.9,-,N/A,,Clear,20,2013-03-14 05:53:00